Location: Unspecified
(0.0000°N, 0.0000°E)
Time: 06:13:16
(UTC+00:00)

Vanguard 2 Rocket - Pass Details

Date: 10 October 2023
Orbit: 552 x 3312 km, 32.9° (Epoch: 06 December)

Event Time Altitude Azimuth Distance (km) Brightness Sun altitude
Rises 12:42:46 0° 318° (NW) 6,612 11.4 74.6°
Reaches altitude 10° 12:47:29 10° 326° (NW) 5,868 11.2 73.5°
Maximum altitude 13:05:00 39° 30° (NNE) 4,290 10.7 69.4°
Drops below altitude 10° 13:21:41 10° 92° (E) 5,682 10.8 65.5°
Sets 13:26:03 0° 100° (E) 6,402 11.0 64.4°
